Wind_Speed
106 106 107 107 107 108 109 109 110 110 111 111 111 111 112 112 112 112 112 112 112 112 112 112 111 111 110 109 109 108 107 106 105 104 104 103 103 103 103 103 104 104 104 104 104 104 104 104 104 104 104 104 104 104 104 103 103 103 102 102 101 100 100 98 97 96 94 92 90 88 86 84 82 80 79 77 76 75 74 73 72 71 70 69 69 68
109 109 110 110 111 111 112 112 112 113 113 113 113 113 113 113 113 113 113 113 113 113 113 112 112 111 111 110 109 108 107 106 105 104 103 103 103 103 103 104 104 104 104 104 104 104 103 103 103 103 102 102 102 101 101 100 100 99 99 98 97 96 95 93 92 90 88 86 84 82 81 79 78 77 76 74 73 73 72 71 70 69 68 67 66 66
112 113 113 114 114 115 115 116 115 115 115 114 114 114 113 113 114 114 114 113 113 113 112 112 111 110 109 108 107 106 105 104 103 102 102 101 101 101 102 102 102 102 102 102 101 101 101 100 100 99 99 98 98 97 97 96 96 95 94 93 92 91 89 87 86 84 82 80 79 78 77 76 75 75 74 73 72 71 70 69 68 67 66 65 64 64
115 116 116 116 117 117 117 117 116 115 115 114 114 113 113 113 113 113 113 112 112 111 110 109 108 107 106 105 104 102 101 100 99 99 98 98 98 98 98 98 98 98 98 98 97 97 96 96 95 95 94 94 93 93 92 91 91 90 89 88 86 85 83 82 80 79 78 77 76 76 75 75 74 73 72 72 71 70 68 68 67 66 65 63 63 63
116 117 117 116 116 116 115 114 113 113 112 112 111 111 111 111 110 110 109 109 108 107 106 104 103 102 101 100 99 98 97 96 96 95 95 95 95 95 94 94 94 94 94 93 93 92 92 91 91 90 90 89 89 88 87 87 86 85 84 83 82 81 80 79 78 77 76 75 75 75 74 74 73 72 71 71 70 68 68 67 66 65 64 63 62 62
115 114 113 113 112 111 110 109 108 108 107 107 107 107 106 106 105 105 104 103 102 101 100 98 97 96 95 94 94 93 92 92 91 91 91 91 91 91 90 90 90 89 89 89 88 88 87 87 86 86 86 85 84 84 83 82 81 81 80 79 79 78 78 77 76 76 75 75 74 74 74 73 72 71 71 70 69 68 67 66 66 65 63 62 61 61
108 107 106 105 105 104 103 102 102 101 101 101 101 100 100 99 98 98 97 96 95 94 93 92 91 90 90 89 88 88 87 87 87 87 87 87 87 86 86 86 86 85 85 84 84 84 83 83 83 82 82 81 81 80 80 79 79 78 78 78 78 78 77 77 76 76 75 75 74 74 73 72 72 71 70 69 68 67 66 66 65 64 63 62 61 60
100 99 98 97 97 96 95 95 94 94 93 93 93 92 92 91 91 90 89 89 88 87 87 86 85 85 84 84 83 83 83 83 83 83 83 83 83 82 82 82 82 81 81 81 80 80 80 80 80 79 79 79 79 78 78 78 78 78 78 77 77 77 77 77 76 75 75 74 74 73 73 72 71 71 70 69 68 67 66 66 65 64 63 62 61 60
91 91 90 90 89 89 88 88 87 87 86 86 86 85 85 84 84 84 83 83 82 82 81 81 81 80 80 80 79 79 79 79 79 79 79 79 79 79 79 79 79 79 78 78 78 78 78 78 78 78 78 78 78 78 78 77 77 77 77 78 77 77 77 76 76 75 75 74 74 73 72 72 71 71 70 69 68 67 66 65 65 63 62 61 60 59
84 84 84 84 84 83 83 83 83 82 82 81 81 80 80 80 80 79 79 79 79 78 78 77 77 77 77 77 77 76 76 77 77 77 77 77 77 77 77 77 77 77 77 77 77 77 77 77 78 78 78 78 78 78 78 78 78 78 78 78 78 77 77 76 76 75 75 74 74 73 72 72 71 71 70 69 69 68 67 65 64 63 61 60 59 59
80 80 80 80 81 81 81 81 81 81 80 80 79 79 78 78 78 77 77 77 77 77 76 76 75 75 75 75 75 75 75 75 76 76 76 76 76 76 76 76 76 76 77 77 77 77 78 78 78 78 78 78 78 78 78 78 78 78 78 78 78 77 77 76 76 75 75 74 74 73 73 72 72 71 71 70 69 68 67 66 64 62 61 60 59 58
79 79 79 79 80 80 80 81 81 81 81 81 80 80 79 78 78 77 77 77 77 76 76 76 75 75 75 75 75 75 75 75 76 76 76 76 76 77 77 77 77 77 77 77 77 78 78 79 79 79 79 79 79 79 79 79 79 79 79 78 78 77 77 76 76 75 75 75 74 74 74 73 72 72 71 70 69 68 67 65 64 62 60 59 58 57
79 79 79 80 80 80 81 81 82 82 82 82 82 81 81 80 79 78 78 78 77 77 77 76 76 76 76 76 76 76 76 76 77 77 77 77 77 77 77 77 77 77 78 78 78 79 79 80 80 80 80 80 80 80 80 80 80 80 79 79 79 78 77 77 76 76 75 75 75 75 74 74 73 72 71 70 69 68 67 65 63 61 60 58 58 57
81 80 80 81 81 81 82 82 83 83 84 83 83 83 82 82 81 80 79 79 79 78 78 77 77 77 77 77 77 77 77 77 78 78 78 78 78 78 78 78 78 78 78 79 79 80 80 81 81 81 81 81 81 81 81 81 81 81 81 80 80 79 78 77 77 76 76 76 76 75 75 74 73 72 71 70 69 68 66 64 62 60 59 58 57 56
82 82 82 82 82 83 83 83 84 84 85 85 85 84 84 83 82 81 80 80 80 79 79 78 78 78 78 78 78 78 78 78 78 79 79 79 79 79 79 79 79 80 79 80 80 81 81 81 82 82 82 82 82 82 83 83 83 83 82 82 81 80 79 78 78 77 77 76 76 76 75 74 73 72 71 70 68 67 65 63 61 59 58 57 56 55
85 84 84 84 84 84 85 85 85 86 86 86 86 86 85 84 84 83 82 81 81 80 80 79 79 79 80 80 80 79 79 79 79 79 80 80 80 80 80 80 80 81 81 81 81 82 82 82 83 83 83 83 83 84 84 84 84 84 84 84 83 82 81 80 79 78 77 77 77 76 75 74 73 72 71 69 68 66 64 62 60 58 57 56 55 54
87 87 87 87 87 87 87 87 87 88 88 88 88 87 87 86 85 85 84 83 82 82 81 80 80 80 81 81 81 81 80 80 80 80 80 81 81 81 81 81 81 82 82 82 82 83 83 83 83 84 84 84 84 85 85 85 86 86 86 85 85 83 82 81 80 79 78 78 77 77 76 75 74 72 71 69 68 66 64 61 59 57 56 55 54 53
90 89 89 89 89 89 89 89 89 90 90 90 90 89 88 88 87 86 86 85 84 83 83 82 82 82 82 83 83 83 82 81 81 81 81 82 82 82 82 82 82 83 83 83 83 83 84 84 84 85 85 85 85 86 86 87 87 87 87 87 86 85 84 82 81 80 79 78 78 77 76 75 74 73 71 69 68 65 63 60 58 57 55 54 53 52
92 92 92 92 92 91 91 91 91 92 92 92 91 91 90 89 89 88 87 87 86 85 85 84 84 83 84 84 84 84 83 82 82 82 82 83 83 83 83 83 83 84 84 84 84 84 84 85 85 85 86 86 87 87 87 88 88 89 89 88 88 87 85 84 82 81 80 79 79 78 77 76 75 73 71 70 68 65 63 60 58 56 54 53 52 51
95 94 94 94 94 94 93 93 94 94 94 93 93 92 91 91 90 90 89 89 88 87 86 85 85 85 85 85 86 85 84 83 83 83 83 84 84 84 84 84 84 84 85 85 85 85 85 86 86 86 87 87 87 88 88 89 89 90 90 89 89 88 87 85 84 82 81 80 79 78 77 76 75 73 71 70 67 65 62 59 57 55 54 52 51 51
97 97 97 96 96 96 95 95 96 96 95 95 94 94 93 92 92 91 91 90 89 89 88 87 87 86 86 86 87 87 86 85 84 84 84 85 85 85 85 85 85 85 86 86 86 86 86 86 87 87 88 88 88 89 89 89 90 90 90 90 90 89 88 86 85 83 82 80 80 79 78 76 75 73 71 69 67 64 62 59 57 55 53 52 51 50
99 99 99 98 98 97 97 97 97 97 97 96 96 95 94 94 93 92 92 91 90 90 89 88 88 88 88 88 88 88 87 86 86 85 85 85 86 87 87 86 86 86 87 87 87 87 87 87 88 88 89 89 89 90 90 90 91 91 91 91 90 89 88 87 85 83 82 81 80 79 78 76 75 73 71 69 66 64 61 58 56 54 52 51 50 49
101 101 101 100 100 99 99 99 99 98 98 98 97 96 96 95 94 94 93 92 91 91 90 90 89 89 89 89 89 89 88 88 87 87 86 86 87 88 88 87 87 88 88 88 88 88 88 89 89 89 89 90 90 90 91 91 91 92 91 91 91 90 89 87 86 84 82 81 80 79 78 76 74 72 70 68 66 63 60 57 55 53 51 50 49 49
104 104 103 102 102 102 101 101 100 100 100 99 99 98 98 97 96 95 94 93 92 92 91 91 90 90 90 90 90 90 90 89 89 88 87 88 88 89 89 89 89 89 89 89 89 89 89 90 90 90 90 91 91 91 92 92 92 92 92 92 91 90 89 88 86 84 82 81 80 79 78 76 74 72 70 67 65 62 59 56 54 52 51 49 49 48
107 106 105 105 104 104 103 103 102 102 101 101 100 100 99 98 97 97 95 95 94 93 92 92 92 92 92 92 91 92 92 91 90 89 89 89 90 90 90 90 90 90 90 91 90 90 90 90 91 91 91 91 92 92 92 93 93 93 92 92 91 91 89 88 86 84 82 81 80 79 78 76 74 71 69 66 64 61 58 56 53 51 50 49 48 47
110 109 108 107 106 106 105 105 104 104 103 103 102 102 101 100 99 98 97 96 95 94 94 93 93 93 93 93 93 93 93 93 92 91 91 91 91 91 91 91 91 91 91 92 92 91 91 91 92 92 92 92 93 93 93 93 93 93 93 92 92 91 89 88 86 84 82 81 80 79 78 76 74 71 69 66 63 60 57 55 52 51 49 48 47 47
113 112 111 110 109 108 107 107 106 106 105 104 104 103 103 102 101 100 99 98 97 96 95 95 95 95 94 94 95 95 95 94 94 93 93 92 92 92 93 93 93 92 93 93 93 92 92 92 93 93 93 93 93 94 94 94 94 94 93 93 92 91 89 87 86 84 82 81 80 79 77 76 73 71 68 65 62 59 56 54 52 50 48 47 47 46
116 115 114 113 112 111 110 109 108 108 107 106 106 105 104 103 102 102 101 100 99 98 97 97 97 96 96 96 96 96 96 96 96 96 95 94 94 94 95 94 94 94 94 94 94 94 93 93 93 94 94 94 94 94 94 94 94 94 93 93 92 91 89 87 85 84 82 81 80 78 77 75 73 70 68 65 62 59 56 53 51 49 48 47 46 45
118 117 116 115 114 113 112 111 110 110 109 108 108 107 106 105 104 104 103 102 101 100 99 99 99 98 98 98 98 98 98 98 98 98 96 96 96 96 96 96 95 95 95 95 95 95 95 95 95 95 95 95 95 95 95 95 94 94 94 93 92 91 89 87 85 83 82 80 79 78 77 75 72 70 67 64 61 58 55 52 50 49 47 46 45 45
120 119 118 117 116 115 114 113 112 112 111 110 110 109 108 107 106 106 105 104 103 102 102 101 101 100 100 100 100 100 100 100 100 99 98 97 97 97 97 97 96 96 96 96 96 96 96 96 96 96 96 96 96 96 95 95 95 94 94 93 92 90 89 87 84 83 81 80 79 77 76 74 72 69 66 63 60 57 54 52 50 48 47 46 45 44
122 121 120 119 118 117 116 115 114 113 113 112 111 110 110 109 108 107 107 106 105 104 104 103 103 102 102 101 101 101 102 102 102 101 100 99 99 99 98 98 98 97 97 96 96 96 97 97 98 97 97 97 96 96 96 95 95 94 94 93 92 90 88 86 84 82 81 79 78 77 75 73 71 68 65 62 59 56 53 51 49 48 46 46 45 44
123 122 121 121 120 119 118 117 116 115 114 113 113 112 111 110 110 109 109 108 107 107 106 105 105 105 104 103 103 103 104 104 104 103 102 101 100 100 100 99 99 99 98 98 97 97 98 98 99 98 98 97 97 97 96 96 95 95 94 93 92 90 88 86 84 82 80 79 78 76 74 72 70 67 64 61 58 55 53 50 48 47 46 45 44 44
124 123 122 122 121 120 119 118 117 116 115 115 114 113 112 112 111 110 110 109 109 108 108 107 107 106 106 105 105 105 105 105 105 104 103 102 102 101 101 100 100 100 99 99 98 98 99 99 99 99 99 98 98 97 97 96 96 95 94 93 92 90 88 85 84 82 80 79 77 75 73 71 69 66 63 60 57 54 52 49 48 47 46 45 44 43
124 123 123 122 121 120 120 119 118 117 116 115 115 114 113 113 112 112 111 111 110 110 109 109 109 108 107 107 107 107 107 107 106 106 105 104 103 103 102 102 101 101 100 100 100 100 100 100 100 100 100 99 98 98 97 96 96 95 94 93 91 90 87 85 83 81 80 78 76 75 73 70 68 65 62 59 56 53 51 49 47 46 45 44 44 43
123 122 122 121 121 120 120 119 118 117 117 116 115 114 114 113 113 112 112 112 111 111 111 110 110 109 109 108 108 108 108 108 108 107 106 105 104 104 103 102 102 101 101 101 101 100 100 101 101 100 100 100 99 98 97 97 96 95 94 93 91 89 87 85 83 81 79 77 76 74 71 69 66 64 61 58 55 52 50 48 47 46 45 44 43 42
121 121 120 120 120 119 119 118 118 117 116 116 115 114 114 113 113 113 112 112 112 112 112 111 111 110 110 109 109 109 109 109 108 108 107 106 105 104 104 103 103 102 102 102 101 101 101 101 101 101 100 100 100 99 98 97 96 95 94 92 91 89 86 84 82 80 78 77 75 73 70 68 65 62 59 56 53 51 49 47 46 45 44 43 43 42
119 118 118 118 117 117 117 117 117 116 116 115 115 114 114 113 113 112 112 112 112 112 112 111 111 111 110 110 109 109 109 109 109 108 108 107 106 105 104 104 103 103 102 102 102 102 102 102 101 101 101 100 100 99 98 97 96 95 94 92 90 88 86 84 81 79 77 76 74 72 69 66 64 61 58 55 52 50 48 46 45 44 43 43 42 42
115 115 115 115 115 115 115 115 115 115 115 114 114 113 113 112 112 112 111 111 111 111 111 111 111 111 110 110 110 109 109 109 109 109 108 107 107 106 105 104 104 103 103 103 102 102 102 102 101 101 101 100 100 99 98 97 96 95 94 92 90 88 85 83 81 78 76 75 73 70 68 65 62 59 56 53 51 49 47 46 44 44 43 42 42 41
111 111 111 111 111 112 113 113 113 113 113 113 112 112 111 111 111 110 110 110 110 110 111 111 111 111 110 110 110 109 109 109 109 109 108 108 107 106 105 104 104 103 103 103 102 102 102 102 102 101 101 100 100 99 98 97 96 95 93 91 89 87 84 82 79 77 75 73 71 69 66 64 61 58 55 52 50 47 46 45 44 43 42 42 41 41
106 107 107 107 107 108 109 110 110 110 110 110 110 110 109 109 109 109 109 109 109 109 109 110 110 110 110 110 110 109 109 109 109 108 108 107 107 106 105 105 104 104 103 103 102 102 102 102 102 101 101 100 99 99 97 96 95 94 92 91 89 86 83 80 78 76 74 72 70 67 65 62 59 56 53 51 48 46 45 44 43 42 42 41 41 41
101 102 102 102 103 103 105 106 106 107 107 107 107 107 107 106 106 107 107 107 107 107 108 108 108 109 109 109 109 109 108 108 108 108 107 107 106 106 105 104 104 103 103 103 102 102 102 102 101 101 100 100 99 98 97 96 94 93 91 89 87 85 82 79 77 75 73 70 68 66 63 61 58 55 52 49 47 46 44 43 42 42 42 41 41 40
96 97 97 97 98 99 100 101 102 102 103 103 103 103 103 103 103 103 104 104 104 105 105 106 107 107 108 108 107 107 107 107 107 107 107 106 106 105 104 104 103 103 102 102 102 102 101 101 101 100 100 99 98 97 96 95 94 92 90 88 86 83 80 78 75 73 71 69 66 64 61 59 56 53 51 48 46 45 43 42 42 41 41 41 41 40
91 92 92 92 93 94 95 96 97 98 98 99 99 99 99 99 99 100 100 101 101 102 102 103 104 105 105 106 106 105 105 105 105 105 105 105 105 104 104 103 102 102 102 102 102 101 101 100 100 99 99 98 97 96 95 94 92 90 88 86 83 81 78 76 73 71 69 67 64 62 59 57 54 52 49 47 45 44 42 42 41 41 41 41 40 40
87 87 87 88 88 89 90 91 92 93 93 94 94 95 95 95 95 95 96 97 97 98 98 99 100 101 102 102 103 103 103 103 103 103 103 103 103 103 102 102 101 101 100 100 100 100 100 99 99 98 97 96 95 95 94 93 91 89 86 83 81 78 76 74 71 69 67 64 62 60 58 55 52 50 48 46 44 43 42 41 41 41 41 40 40 39
83 83 83 83 84 84 85 86 87 88 88 89 90 90 90 90 90 91 92 92 93 93 94 95 96 97 98 98 99 99 100 100 100 101 101 101 101 100 100 100 99 99 99 99 99 98 98 98 97 96 95 94 93 93 92 90 89 86 84 81 78 76 73 71 69 67 65 63 60 58 56 53 50 48 46 44 43 41 41 40 40 40 40 40 39 39
79 80 80 80 80 80 81 82 82 83 84 85 85 86 86 86 86 87 87 88 88 89 90 91 91 93 93 94 94 95 96 97 97 97 98 98 98 97 97 97 97 96 96 96 96 96 96 95 95 94 93 92 92 91 90 88 86 84 81 78 75 73 71 69 66 64 62 60 58 56 54 51 49 47 45 43 41 40 40 40 40 40 40 40 39 38
76 76 77 77 77 77 77 78 79 79 80 81 81 82 82 82 82 83 83 83 84 85 85 86 87 88 89 89 90 91 92 92 93 94 94 94 94 94 94 94 93 93 93 93 93 93 93 92 91 91 90 90 90 88 87 85 83 80 78 75 72 70 68 66 64 62 60 58 56 54 51 49 47 45 43 41 40 39 39 39 40 40 39 39 39 38
74 74 74 74 74 74 74 75 75 76 77 77 78 78 79 79 79 79 79 80 80 81 81 82 82 83 84 84 85 86 87 88 89 89 90 90 90 90 90 90 90 90 90 90 90 90 89 89 88 88 87 87 87 86 84 82 79 77 74 72 69 67 66 64 62 60 58 56 54 51 49 47 45 43 41 39 39 39 39 39 39 39 39 39 38 38
71 71 71 71 71 71 71 71 72 73 74 74 75 76 76 76 76 76 76 76 76 77 77 78 78 78 79 80 81 82 83 84 84 85 85 86 86 86 86 86 86 86 86 86 86 86 86 85 85 85 84 84 83 82 80 78 75 73 70 68 67 65 63 61 59 57 56 54 51 49 47 45 43 41 39 38 38 38 39 39 39 39 39 38 38 37
68 68 68 68 68 68 68 69 69 70 71 72 72 73 73 73 73 72 72 72 73 73 73 74 74 74 75 76 77 78 79 79 80 81 81 82 82 82 82 82 82 83 83 83 83 83 83 82 82 82 81 81 79 78 76 74 72 69 67 66 64 62 61 59 57 55 53 51 49 47 44 42 41 39 38 38 38 38 39 39 39 38 38 38 37 37
65 65 65 65 65 65 65 66 67 67 68 69 70 70 70 70 69 69 69 69 69 70 70 70 70 71 71 72 73 74 75 76 76 77 77 78 78 78 78 78 79 79 79 80 80 80 79 79 79 79 78 77 76 74 72 70 68 66 65 63 61 60 58 56 55 53 51 48 46 44 42 40 39 38 38 38 38 38 39 39 38 38 38 37 37 36
Wind_Direction
278 279 279 279 280 280 280 280 281 281 281 281 281 281 282 282 282 282 283 283 284 284 284 285 285 285 285 285 285 285 285 284 284 284 283 283 283 283 283 283 283 283 284 284 284 285 285 285 286 286 286 286 287 287 287 288 288 288 289 289 290 290 291 291 292 292 293 293 294 294 294 295 295 295 295 296 296 296 296 296 296 295 295 295 295 294
280 280 280 280 281 281 281 281 282 282 282 282 282 282 282 282 282 282 283 283 283 284 284 284 284 284 284 284 284 284 284 284 284 283 283 283 283 283 283 283 283 283 284 284 284 285 285 285 286 286 286 286 287 287 287 288 288 288 289 289 290 290 291 292 292 293 293 294 294 295 295 295 296 296 296 296 296 296 296 296 295 295 295 294 294 293
281 281 281 282 282 282 282 282 282 282 282 282 282 282 282 282 282 282 282 283 283 283 283 283 283 283 283 283 283 284 283 283 283 283 283 283 283 283 283 283 283 283 284 284 284 285 285 285 285 286 286 286 287 287 287 288 288 289 289 290 290 291 291 292 293 293 294 294 295 295 295 296 296 296 296 296 296 296 296 296 295 295 295 294 293 292
281 281 281 282 282 282 282 282 282 282 282 282 282 282 282 282 282 282 282 282 282 282 282 282 282 283 283 283 283 283 283 283 283 283 283 283 283 283 283 283 283 283 284 284 284 285 285 285 286 286 286 286 287 287 288 288 289 289 290 290 291 291 292 293 293 294 294 295 295 296 296 296 297 297 297 297 297 297 297 296 296 295 295 294 293 292
280 281 281 281 281 281 281 281 281 281 281 281 281 281 281 281 281 281 281 282 282 282 282 282 282 282 282 282 282 282 282 282 282 282 282 283 283 283 283 283 283 284 284 284 285 285 285 286 286 286 287 287 287 288 288 289 289 290 290 291 292 292 293 293 294 295 295 296 296 296 297 297 297 298 298 298 298 298 298 297 297 296 295 294 293 291
280 280 280 280 280 280 280 280 280 280 280 280 280 280 280 280 280 281 281 281 281 281 281 281 281 281 281 282 282 282 282 282 282 282 282 283 283 283 283 283 284 284 284 285 285 285 286 286 286 287 287 287 288 288 289 289 290 291 291 292 293 293 294 294 295 295 296 296 297 297 297 298 298 298 299 299 299 299 299 298 298 297 296 294 293 291
280 280 280 280 280 280 280 280 280 280 280 280 280 280 280 280 280 280 280 280 280 281 281 281 281 281 281 282 282 282 282 282 282 282 283 283 283 283 283 284 284 284 285 285 285 286 286 287 287 287 288 288 289 289 290 290 291 292 292 293 294 294 295 295 296 296 297 297 298 298 298 299 299 299 300 300 300 300 299 299 298 297 296 295 293 291
279 279 279 279 280 280 280 280 280 280 280 280 280 280 280 280 280 280 280 280 280 281 281 281 281 281 282 282 282 282 282 282 282 283 283 283 283 284 284 284 284 285 285 286 286 286 287 287 287 288 288 289 289 290 290 291 292 292 293 294 294 295 295 296 296 297 297 298 298 299 299 299 300 300 300 301 301 300 300 299 299 298 296 295 293 291
279 279 279 280 280 280 280 280 280 280 280 280 280 280 280 280 280 280 280 280 281 281 281 281 282 282 282 282 282 283 283 283 283 283 283 283 284 284 284 285 285 285 286 286 287 287 287 288 288 288 289 289 290 290 291 292 292 293 293 294 294 295 295 296 297 297 298 298 299 299 300 300 301 301 301 301 301 301 301 300 299 298 296 294 292 290
279 279 280 280 280 280 280 280 280 280 280 280 280 280 280 280 280 281 281 281 281 281 282 282 282 282 283 283 283 283 283 283 283 284 284 284 284 284 285 285 286 286 286 287 287 288 288 288 288 289 289 290 290 291 292 292 293 293 294 294 294 295 296 296 297 298 298 299 299 300 301 301 301 302 302 302 302 302 301 300 299 298 296 293 291 289
279 280 280 280 280 281 281 281 281 281 281 280 280 280 280 280 280 281 281 282 282 282 282 282 283 283 283 283 283 283 284 284 284 284 284 284 285 285 285 286 286 287 287 288 288 288 288 289 289 289 290 290 291 291 292 292 293 293 294 294 295 295 296 297 298 298 299 300 300 301 302 302 302 303 303 303 303 302 301 300 299 298 295 293 291 289
279 279 280 280 280 280 281 281 281 281 281 280 280 280 280 280 280 281 281 282 282 282 282 283 283 283 283 283 284 284 284 284 284 284 285 285 285 285 286 286 287 287 288 288 288 289 289 289 289 290 290 291 291 292 292 293 293 294 294 295 295 296 297 298 298 299 300 301 301 302 302 303 303 303 303 303 303 302 302 301 299 297 295 293 290 288
278 278 279 279 279 280 280 280 280 280 280 280 280 280 280 280 281 281 281 281 282 282 282 283 283 283 283 283 283 284 284 284 284 285 285 285 285 286 286 287 287 288 288 288 288 289 289 289 290 290 291 291 292 292 293 293 294 294 295 295 296 297 297 298 299 300 301 301 302 302 303 303 303 303 303 303 303 302 302 301 299 297 295 292 290 288
277 277 278 278 278 279 279 279 280 280 280 280 280 280 280 280 280 280 281 281 281 281 282 282 283 283 283 283 283 283 284 284 284 285 285 285 286 286 287 287 287 288 288 288 288 289 289 290 290 291 291 292 292 293 293 294 294 295 295 296 296 297 298 299 299 300 301 301 302 302 303 303 303 303 303 303 303 302 302 300 299 296 294 291 289 287
277 277 277 277 277 278 278 278 279 279 279 279 279 280 280 280 280 280 280 280 281 281 281 282 282 282 282 283 283 283 283 284 284 285 285 285 286 286 287 287 287 287 288 288 288 289 289 290 291 291 292 292 293 294 294 295 295 295 296 296 297 298 298 299 300 301 301 302 302 302 303 303 303 303 303 303 303 302 301 300 298 296 293 290 288 286
277 277 277 277 277 278 278 278 278 278 279 279 279 279 280 280 280 280 280 280 280 281 281 281 282 282 282 282 282 282 283 283 284 284 285 285 286 286 286 287 287 287 288 288 288 289 290 290 291 292 292 293 293 294 294 295 295 296 296 297 297 298 299 299 300 301 301 302 302 303 303 303 304 304 304 304 303 302 301 300 297 295 292 289 287 285
278 278 278 278 278 278 278 278 278 278 278 279 279 279 279 279 280 280 280 280 280 280 281 281 281 282 282 282 282 282 283 283 284 284 285 285 286 286 286 287 287 287 288 288 289 289 290 291 291 292 292 293 294 294 295 295 296 296 296 297 298 298 299 300 300 301 302 302 303 303 303 304 304 304 304 304 304 303 301 299 297 294 291 289 287 285
278 278 278 278 278 278 278 278 278 278 278 278 279 279 279 279 280 280 280 280 280 280 280 281 281 281 282 282 282 282 283 283 284 284 285 285 285 286 286 286 287 287 288 288 289 289 290 291 291 292 292 293 293 294 294 295 295 296 296 297 297 298 299 300 301 302 302 303 303 303 304 304 304 304 304 304 304 303 301 299 296 293 290 288 286 284
278 278 278 278 278 278 278 278 278 278 278 278 278 279 279 279 279 280 280 280 280 280 280 281 281 281 281 282 282 282 283 283 284 284 285 285 285 285 286 286 287 287 287 288 289 289 290 290 291 291 292 292 293 293 294 294 295 295 296 297 297 298 299 300 301 301 302 303 303 303 304 304 304 305 305 304 304 303 301 298 296 293 290 287 285 283
278 278 278 278 278 278 278 278 278 278 278 278 278 279 279 279 279 279 279 279 280 280 280 280 281 281 281 281 282 282 282 283 283 283 284 284 284 285 285 285 286 286 287 287 288 288 289 289 290 290 291 291 292 292 293 293 294 295 295 296 297 298 298 299 300 301 302 303 303 303 304 304 304 304 304 304 304 302 300 298 295 292 289 286 284 282
277 277 277 277 277 277 277 277 277 277 277 278 278 278 278 278 278 278 279 279 279 280 280 280 280 280 281 281 281 281 282 282 282 282 283 283 284 284 284 285 285 285 286 286 287 287 288 288 289 289 290 290 291 292 292 293 293 294 294 295 296 297 298 299 300 301 302 302 303 303 303 304 304 304 304 304 303 302 299 297 294 291 288 286 283 281
276 276 276 276 276 276 276 276 276 276 276 277 277 277 277 277 277 278 278 278 278 279 279 279 280 280 280 280 280 280 281 281 281 281 282 282 283 283 283 284 284 284 285 285 286 286 287 287 288 288 289 290 290 291 291 292 292 293 294 294 295 296 297 298 299 300 301 302 302 302 303 303 303 304 304 303 302 301 298 296 293 290 287 285 282 280
275 275 275 275 275 275 275 275 275 275 275 276 276 276 276 276 276 276 277 277 277 278 278 278 278 279 279 279 279 279 279 280 280 280 281 281 281 282 282 282 283 283 284 284 285 285 286 287 287 288 288 289 289 290 291 291 292 292 293 294 295 295 296 298 299 300 301 301 302 302 302 303 303 303 303 302 301 300 297 295 292 289 286 284 282 280
274 274 274 274 274 274 274 274 274 274 274 275 275 275 275 275 275 275 275 276 276 276 277 277 277 277 277 278 278 278 278 278 279 279 279 279 280 280 281 281 282 282 283 283 284 285 285 286 286 287 288 288 289 289 290 290 291 292 292 293 294 295 296 297 298 299 300 301 301 302 302 302 302 303 302 302 300 298 296 293 291 288 285 283 281 279
273 273 273 273 273 273 273 273 273 273 273 273 274 274 274 274 274 274 274 274 275 275 275 275 276 276 276 276 277 277 277 277 277 278 278 278 279 279 280 280 281 281 282 283 283 284 284 285 286 286 287 288 288 289 289 290 290 291 292 293 293 294 295 297 298 299 300 300 301 301 301 302 302 302 302 301 300 298 295 292 289 287 284 282 280 278
273 273 273 272 272 272 272 272 272 272 272 272 273 273 273 273 273 273 273 273 274 274 274 274 274 275 275 275 276 276 276 276 276 277 277 277 278 278 279 279 280 280 281 282 282 283 284 284 285 286 286 287 287 288 288 289 290 291 291 292 293 294 295 296 297 298 299 300 300 301 301 301 302 301 301 300 299 297 294 291 288 286 283 281 279 277
273 272 272 272 272 272 271 271 271 271 271 272 272 272 272 272 272 272 272 272 273 273 273 273 273 273 274 274 274 275 275 275 276 276 276 277 277 277 278 279 279 280 280 281 282 283 283 284 284 285 286 286 287 287 288 288 289 290 291 292 292 293 294 295 297 298 299 299 300 300 301 301 301 301 301 299 298 296 293 290 287 285 282 280 278 276
272 272 272 272 271 271 271 271 271 271 271 271 271 271 271 271 271 271 271 272 272 272 272 272 272 272 273 273 273 274 274 275 275 275 275 276 276 277 277 278 278 279 280 281 281 282 283 283 284 284 285 285 286 286 287 288 289 289 290 291 292 293 294 295 296 297 298 299 299 300 300 300 301 300 300 299 297 295 292 289 286 284 281 279 278 276
272 272 272 271 271 271 270 270 270 270 270 270 270 270 270 270 270 270 270 271 271 271 271 271 271 271 272 272 272 273 273 274 274 274 275 275 275 276 277 277 278 279 279 280 281 281 282 282 283 283 284 285 285 286 287 287 288 289 289 290 291 292 293 294 296 297 298 298 299 299 300 300 300 300 299 298 296 293 291 288 285 283 281 279 277 275
272 272 272 271 271 271 270 270 270 269 269 269 269 269 269 269 269 269 270 270 270 270 270 270 270 270 271 271 272 272 272 273 273 274 274 274 275 275 276 277 277 278 279 279 280 281 281 282 282 283 283 284 284 285 286 287 287 288 289 290 291 292 293 294 295 296 297 298 298 299 299 299 299 299 298 296 294 292 289 286 284 282 279 278 276 274
272 272 271 271 271 271 270 270 269 269 269 269 269 269 269 269 269 269 269 269 269 269 269 269 269 270 270 270 271 271 271 272 272 273 273 274 274 275 275 276 277 277 278 279 279 280 281 281 282 282 283 283 284 284 285 286 287 287 288 289 290 291 292 293 294 295 296 297 297 298 298 298 298 297 296 295 293 290 288 285 283 280 278 276 275 273
272 272 271 271 271 270 270 270 269 269 269 268 268 268 268 268 268 268 268 268 268 268 268 268 268 269 269 269 270 270 270 271 272 272 273 273 273 274 275 275 276 276 277 278 278 279 280 280 281 281 282 283 283 284 285 285 286 287 288 288 289 290 291 293 294 295 295 296 297 297 297 297 297 296 295 293 291 289 286 283 281 279 277 275 273 272
272 271 271 271 271 270 270 270 269 269 268 268 268 268 267 267 267 267 267 267 267 267 267 267 268 268 268 268 269 269 269 270 271 271 272 272 273 273 274 274 275 276 276 277 277 278 278 279 280 281 281 282 282 283 284 285 285 286 287 288 289 290 291 292 293 294 295 295 296 296 296 296 295 295 293 292 289 287 284 282 279 277 275 274 272 270
271 271 271 271 270 270 270 270 269 269 268 268 268 267 267 267 267 267 267 267 266 267 267 267 267 267 267 268 268 268 269 269 270 270 271 271 272 272 273 274 274 275 275 276 277 277 278 278 279 280 280 281 282 282 283 284 285 285 286 287 288 289 290 291 292 293 294 294 295 295 295 294 294 293 292 290 288 285 282 280 278 276 274 272 271 269
271 271 271 270 270 270 270 269 269 269 268 268 268 267 267 266 266 266 266 266 266 266 266 266 266 266 266 267 267 267 268 268 269 270 270 270 271 271 272 273 273 274 274 275 276 276 277 277 278 279 279 280 281 282 282 283 284 285 285 286 287 288 289 291 291 292 293 293 294 294 293 293 292 291 290 288 286 283 280 278 276 274 273 271 269 268
270 270 270 270 270 270 269 269 269 268 268 268 267 267 266 266 266 265 265 265 265 265 265 265 266 266 266 266 266 267 267 268 268 269 269 270 270 270 271 272 272 273 273 274 275 275 276 276 277 278 279 279 280 281 282 282 283 284 285 286 287 288 289 290 291 291 292 292 292 292 292 292 291 290 288 286 283 281 279 277 275 273 271 270 268 267
270 270 269 269 269 269 269 268 268 268 268 267 267 266 266 266 265 265 265 265 265 265 265 265 265 265 265 265 266 266 266 267 267 268 268 269 269 270 270 271 271 272 272 273 274 274 275 276 276 277 278 278 279 280 281 281 282 283 284 285 286 287 288 289 290 290 291 291 291 291 291 290 289 288 286 284 281 279 277 275 273 271 270 268 267 266
269 269 269 268 268 268 268 268 267 267 267 266 266 266 265 265 265 264 264 264 264 264 264 264 265 265 265 265 265 265 266 266 266 267 267 268 268 269 269 270 270 271 271 272 273 273 274 275 275 276 277 277 278 279 280 281 281 282 283 284 285 286 287 288 289 290 290 290 290 290 289 288 287 286 284 282 279 277 275 273 271 270 268 267 266 265
268 268 268 268 267 267 267 267 266 266 266 266 265 265 265 264 264 264 264 264 263 263 263 264 264 264 264 264 264 264 265 265 265 266 266 267 267 268 268 269 269 270 270 271 272 272 273 274 274 275 276 277 277 278 279 280 280 281 282 283 284 285 286 287 288 288 289 289 288 288 287 287 285 284 282 280 278 275 273 271 270 268 267 265 264 263
268 267 267 267 266 266 266 266 265 265 265 265 264 264 264 264 263 263 263 263 262 262 262 263 263 263 263 263 263 264 264 264 265 265 265 266 266 267 267 268 268 269 270 270 271 271 272 273 273 274 275 275 276 277 278 279 279 280 281 282 283 284 285 286 287 287 287 287 287 286 286 285 283 282 280 278 276 274 272 270 268 267 265 264 263 262
267 267 266 266 265 265 265 265 264 264 264 264 264 263 263 263 262 262 262 262 261 261 261 261 262 262 262 262 262 263 263 263 264 264 264 265 265 266 266 267 267 268 269 269 270 270 271 272 272 273 274 275 275 276 277 278 278 279 280 281 282 283 284 285 285 286 286 285 285 284 284 283 281 280 278 276 273 271 270 268 266 265 264 263 261 261
266 266 265 265 265 264 264 264 263 263 263 263 263 262 262 262 261 261 261 261 261 260 260 260 260 261 261 261 261 261 262 262 262 263 263 264 264 265 265 266 266 267 267 268 269 269 270 271 271 272 273 273 274 275 276 277 277 278 279 280 281 282 283 284 284 284 284 284 283 283 282 280 279 277 275 273 271 269 268 266 265 263 262 261 261 260
265 265 265 264 264 263 263 263 262 262 262 262 262 262 261 261 261 260 260 260 259 259 259 259 259 259 260 260 260 260 261 261 261 262 262 263 263 264 264 265 265 266 266 267 267 268 269 269 270 271 272 272 273 274 275 275 276 277 278 279 280 281 282 282 282 282 282 282 281 280 279 278 277 275 273 271 269 268 266 264 263 261 260 260 259 259
265 264 264 263 263 262 262 262 261 261 261 261 261 261 260 260 260 259 259 259 259 258 258 258 258 258 258 259 259 259 259 260 260 261 261 261 262 262 263 263 264 264 265 266 266 267 268 268 269 270 270 271 272 273 273 274 275 276 277 278 279 280 280 281 281 281 280 280 279 278 277 276 274 272 271 269 267 265 264 262 261 260 259 259 258 258
264 264 263 262 262 261 261 261 260 260 260 260 260 260 259 259 259 258 258 258 258 257 257 257 257 257 257 257 258 258 258 259 259 259 260 260 260 261 261 262 262 263 264 264 265 266 266 267 268 269 269 270 271 271 272 273 274 275 276 277 277 278 279 279 279 278 278 277 276 275 274 273 271 270 268 266 265 263 261 260 259 258 257 257 257 257
263 263 262 261 261 260 260 260 259 259 259 259 259 259 258 258 258 257 257 257 256 256 256 256 256 256 256 256 256 257 257 257 258 258 258 259 259 260 260 261 261 262 262 263 264 264 265 266 267 267 268 269 269 270 271 272 273 274 275 275 276 277 277 277 276 276 275 275 274 273 272 270 269 267 265 264 262 260 259 257 256 256 256 256 256 256
262 261 261 260 260 259 259 259 258 258 258 258 258 257 257 257 256 256 256 255 255 255 255 255 255 255 255 255 255 255 255 256 256 256 257 257 258 258 259 259 260 260 261 262 262 263 264 264 265 266 267 267 268 269 270 270 271 272 273 274 274 275 275 274 274 273 273 272 271 270 269 267 266 264 263 261 259 258 256 255 254 254 254 254 255 255
261 260 260 259 259 258 258 257 257 257 257 257 256 256 256 256 255 255 255 254 254 254 254 254 254 253 253 254 254 254 254 254 255 255 255 256 256 257 257 258 258 259 259 260 261 261 262 263 264 264 265 266 266 267 268 269 270 271 272 272 272 272 272 272 271 271 270 269 268 267 266 265 263 261 260 258 256 255 254 253 253 253 253 253 253 254
260 260 259 259 258 258 257 257 256 256 256 255 255 255 255 255 254 254 254 253 253 253 253 252 252 252 252 252 252 252 253 253 253 253 254 254 255 255 256 256 257 257 258 258 259 260 261 261 262 263 263 264 265 266 267 268 269 270 270 270 270 270 270 269 269 268 268 267 266 265 263 262 260 258 257 255 254 252 251 251 251 251 251 252 252 252
260 259 259 258 258 257 256 256 255 255 255 254 254 254 254 254 253 253 253 253 252 252 252 252 251 251 251 251 251 251 251 251 251 252 252 252 253 253 254 254 255 255 256 257 257 258 259 260 260 261 262 262 263 264 266 267 267 268 268 268 268 268 267 267 267 266 265 264 263 262 260 258 257 255 253 252 251 250 249 249 249 250 250 251 251 251
259 258 258 257 257 256 256 255 255 254 254 253 253 253 253 253 253 252 252 252 251 251 251 250 250 250 250 250 249 249 249 250 250 250 250 251 251 251 252 252 253 253 254 255 256 256 257 258 259 260 260 261 262 263 264 265 266 266 266 266 266 266 265 265 264 264 263 262 260 259 257 255 253 252 250 249 249 248 248 248 248 249 249 249 250 250
Height
10523 10522 10522 10522 10522 10520 10518 10517 10517 10517 10516 10515 10515 10515 10514 10513 10513 10512 10512 10511 10511 10510 10509 10509 10508 10508 10507 10507 10506 10506 10505 10505 10504 10503 10503 10502 10500 10500 10498 10498 10497 10496 10495 10495 10495 10494 10493 10493 10492 10491 10490 10489 10488 10487 10485 10484 10483 10482 10481 10481 10480 10478 10477 10475 10473 10473 10472 10470 10469 10467 10465 10464 10462 10460 10459 10458 10457 10455 10454 10452 10451 10450 10448 10447 10445 10443
10515 10513 10513 10513 10512 10512 10509 10508 10508 10509 10508 10507 10505 10506 10506 10505 10504 10503 10503 10503 10502 10502 10502 10501 10500 10500 10499 10498 10498 10498 10497 10497 10496 10495 10494 10493 10492 10492 10490 10490 10489 10488 10488 10487 10487 10486 10485 10485 10484 10483 10482 10481 10480 10479 10478 10477 10475 10475 10473 10473 10472 10471 10470 10468 10467 10466 10465 10463 10462 10460 10458 10457 10456 10454 10453 10452 10450 10449 10448 10447 10445 10443 10443 10441 10440 10437
10507 10505 10503 10503 10503 10502 10500 10499 10499 10500 10500 10498 10497 10497 10497 10497 10495 10495 10494 10494 10494 10493 10493 10493 10492 10492 10491 10490 10490 10490 10489 10488 10488 10487 10486 10485 10484 10483 10482 10482 10481 10480 10480 10479 10478 10478 10478 10477 10476 10475 10475 10473 10473 10472 10470 10469 10468 10467 10467 10466 10465 10464 10463 10462 10461 10460 10458 10457 10455 10453 10452 10451 10450 10448 10447 10445 10444 10443 10442 10440 10439 10438 10437 10436 10435 10432
10498 10497 10494 10493 10493 10493 10492 10491 10490 10490 10490 10490 10489 10488 10488 10487 10487 10486 10485 10486 10485 10485 10484 10484 10483 10483 10483 10482 10482 10482 10481 10480 10480 10478 10478 10477 10476 10475 10475 10474 10473 10473 10472 10472 10471 10471 10470 10470 10468 10468 10467 10466 10465 10464 10463 10463 10462 10461 10460 10459 10458 10457 10457 10455 10455 10454 10453 10452 10450 10448 10446 10445 10444 10442 10441 10439 10438 10437 10435 10433 10433 10432 10432 10430 10429 10427
10490 10488 10487 10485 10484 10483 10482 10482 10482 10482 10481 10480 10480 10480 10479 10478 10478 10477 10477 10477 10477 10476 10476 10475 10475 10475 10475 10474 10474 10473 10473 10473 10472 10471 10470 10469 10468 10468 10467 10467 10466 10465 10465 10464 10464 10463 10463 10462 10462 10460 10460 10459 10458 10457 10457 10456 10455 10455 10453 10453 10452 10451 10450 10449 10448 10448 10447 10445 10443 10442 10440 10438 10438 10437 10435 10433 10432 10430 10428 10427 10426 10425 10425 10424 10423 10422
10481 10480 10478 10477 10475 10474 10473 10473 10473 10473 10472 10472 10471 10471 10470 10470 10470 10469 10468 10468 10468 10468 10467 10467 10467 10467 10467 10467 10467 10466 10466 10465 10464 10463 10462 10462 10461 10460 10460 10459 10458 10458 10457 10457 10457 10457 10456 10455 10454 10453 10452 10452 10451 10450 10450 10450 10449 10448 10447 10446 10445 10445 10443 10443 10442 10442 10440 10439 10438 10436 10434 10433 10432 10430 10429 10427 10426 10425 10423 10421 10420 10418 10418 10417 10417 10415
10472 10471 10470 10468 10467 10466 10465 10465 10464 10464 10464 10463 10462 10462 10462 10462 10461 10461 10460 10460 10460 10460 10460 10460 10460 10460 10460 10460 10459 10459 10458 10457 10457 10456 10455 10455 10454 10453 10453 10452 10452 10451 10451 10450 10450 10450 10449 10448 10447 10447 10446 10445 10445 10444 10443 10443 10442 10442 10441 10440 10439 10438 10438 10437 10436 10435 10434 10433 10432 10430 10428 10427 10425 10424 10423 10422 10420 10419 10417 10416 10414 10413 10412 10412 10410 10410
10465 10463 10462 10460 10458 10457 10457 10457 10456 10456 10456 10455 10455 10454 10453 10453 10453 10453 10453 10452 10452 10452 10452 10452 10452 10452 10452 10452 10452 10452 10451 10450 10450 10448 10448 10447 10447 10447 10446 10445 10445 10445 10445 10444 10443 10443 10443 10442 10441 10440 10440 10439 10438 10438 10438 10437 10437 10436 10435 10434 10433 10433 10432 10431 10430 10429 10428 10427 10426 10425 10423 10422 10420 10418 10417 10416 10415 10413 10412 10410 10409 10408 10407 10405 10404 10403
10457 10455 10453 10452 10451 10450 10449 10448 10448 10448 10448 10448 10447 10447 10447 10446 10445 10445 10445 10445 10445 10445 10446 10445 10445 10445 10445 10445 10445 10445 10444 10443 10443 10442 10442 10441 10440 10440 10440 10439 10438 10438 10438 10438 10437 10437 10436 10435 10435 10434 10433 10433 10433 10432 10432 10432 10431 10430 10429 10428 10428 10427 10426 10425 10425 10423 10423 10422 10420 10418 10417 10415 10414 10412 10411 10410 10408 10407 10406 10405 10403 10402 10400 10399 10398 10397
10450 10449 10447 10445 10444 10443 10442 10441 10440 10440 10440 10440 10440 10440 10440 10439 10438 10438 10438 10438 10438 10438 10439 10439 10439 10438 10438 10438 10438 10438 10437 10437 10436 10435 10435 10435 10434 10433 10433 10433 10433 10432 10432 10432 10432 10430 10430 10429 10428 10428 10427 10427 10427 10427 10426 10425 10425 10424 10423 10423 10422 10421 10420 10420 10418 10418 10417 10415 10414 10413 10411 10410 10408 10407 10405 10403 10402 10401 10400 10399 10398 10396 10395 10393 10392 10391
10443 10442 10441 10439 10437 10436 10435 10434 10433 10433 10433 10433 10433 10433 10433 10433 10433 10433 10432 10432 10432 10432 10433 10433 10433 10433 10432 10432 10432 10432 10432 10430 10429 10429 10428 10428 10428 10427 10427 10427 10427 10427 10426 10425 10425 10424 10423 10422 10422 10422 10421 10421 10421 10420 10420 10420 10419 10418 10418 10417 10416 10415 10414 10413 10413 10412 10410 10409 10408 10407 10405 10403 10402 10400 10399 10397 10397 10395 10394 10392 10391 10390 10388 10387 10386 10385
10437 10435 10435 10433 10432 10430 10428 10427 10427 10426 10425 10425 10425 10425 10425 10427 10428 10428 10427 10426 10425 10425 10426 10427 10427 10427 10427 10426 10425 10425 10425 10424 10423 10422 10422 10422 10422 10422 10421 10421 10421 10420 10420 10419 10418 10417 10417 10416 10415 10415 10415 10415 10415 10414 10413 10413 10413 10412 10412 10410 10410 10409 10408 10408 10407 10406 10405 10403 10402 10400 10399 10398 10397 10395 10393 10392 10391 10389 10388 10386 10385 10383 10382 10381 10380 10379
10430 10430 10428 10427 10426 10424 10423 10421 10420 10418 10418 10418 10418 10418 10418 10419 10421 10422 10422 10420 10420 10420 10420 10420 10420 10420 10420 10420 10420 10419 10418 10417 10417 10417 10416 10415 10415 10415 10415 10415 10414 10414 10413 10413 10412 10411 10410 10410 10409 10408 10408 10408 10408 10408 10407 10407 10406 10405 10405 10404 10403 10403 10402 10402 10401 10400 10399 10398 10397 10395 10394 10392 10391 10390 10388 10387 10385 10383 10382 10380 10379 10377 10376 10375 10374 10373
10423 10423 10422 10422 10420 10418 10417 10415 10413 10412 10410 10410 10410 10411 10412 10412 10413 10415 10415 10415 10414 10414 10415 10414 10413 10413 10413 10413 10413 10413 10412 10412 10410 10410 10410 10409 10409 10409 10409 10408 10408 10407 10408 10407 10405 10405 10404 10403 10403 10402 10402 10402 10402 10401 10400 10400 10399 10398 10398 10397 10397 10397 10396 10396 10395 10395 10393 10392 10391 10390 10388 10387 10386 10385 10383 10382 10380 10378 10377 10375 10373 10372 10371 10370 10368 10368
10416 10417 10416 10415 10413 10412 10411 10409 10407 10405 10404 10403 10403 10404 10405 10405 10407 10407 10408 10408 10408 10408 10408 10408 10407 10407 10407 10407 10407 10407 10406 10405 10405 10404 10403 10403 10403 10403 10403 10402 10401 10401 10401 10400 10399 10398 10398 10398 10397 10396 10396 10395 10395 10394 10393 10393 10392 10392 10391 10390 10390 10390 10390 10390 10389 10388 10388 10387 10385 10384 10383 10382 10380 10379 10378 10376 10375 10373 10371 10369 10368 10367 10365 10364 10363 10362
10408 10408 10408 10407 10407 10405 10404 10403 10401 10399 10397 10397 10397 10397 10397 10398 10398 10400 10402 10401 10401 10402 10402 10402 10401 10400 10399 10399 10400 10401 10400 10400 10398 10398 10398 10397 10397 10397 10398 10397 10395 10394 10394 10394 10393 10392 10392 10391 10390 10390 10390 10389 10388 10388 10387 10387 10385 10385 10384 10383 10383 10383 10383 10383 10383 10383 10382 10380 10380 10378 10377 10376 10374 10373 10372 10370 10368 10367 10365 10363 10362 10361 10360 10358 10358 10357
10400 10400 10400 10400 10399 10398 10397 10395 10394 10392 10391 10390 10390 10390 10390 10391 10392 10392 10393 10394 10394 10395 10395 10395 10395 10394 10392 10392 10392 10393 10395 10394 10393 10392 10392 10391 10390 10390 10391 10390 10388 10387 10387 10387 10387 10387 10386 10385 10384 10384 10383 10383 10382 10382 10381 10380 10379 10378 10378 10377 10377 10377 10377 10377 10377 10376 10375 10374 10373 10372 10370 10370 10368 10367 10366 10364 10363 10361 10360 10358 10357 10355 10355 10353 10353 10352
10392 10392 10392 10391 10390 10390 10389 10388 10387 10385 10383 10383 10383 10383 10383 10384 10385 10385 10386 10386 10387 10387 10387 10388 10388 10388 10387 10385 10383 10385 10388 10389 10387 10386 10385 10384 10383 10383 10384 10384 10382 10381 10380 10380 10380 10380 10380 10379 10378 10378 10377 10377 10377 10376 10375 10374 10373 10372 10371 10370 10370 10370 10370 10370 10370 10370 10369 10368 10367 10365 10364 10363 10362 10361 10360 10358 10357 10355 10354 10353 10352 10350 10349 10348 10348 10347
10382 10383 10383 10382 10382 10381 10381 10380 10378 10377 10376 10375 10375 10376 10377 10377 10377 10378 10378 10378 10379 10380 10380 10381 10381 10380 10380 10378 10377 10377 10381 10382 10382 10380 10378 10377 10376 10376 10377 10377 10376 10375 10375 10374 10374 10375 10374 10373 10373 10372 10372 10372 10371 10370 10370 10368 10368 10367 10365 10365 10364 10364 10364 10364 10364 10363 10363 10362 10361 10360 10358 10357 10356 10355 10354 10353 10351 10350 10348 10347 10346 10345 10344 10343 10342 10342
10374 10374 10374 10373 10373 10373 10372 10371 10370 10369 10368 10368 10368 10369 10370 10369 10370 10370 10370 10370 10372 10372 10373 10374 10374 10373 10372 10372 10370 10370 10373 10375 10375 10373 10372 10371 10370 10369 10370 10371 10370 10368 10368 10368 10368 10369 10368 10368 10367 10367 10366 10366 10365 10365 10364 10363 10362 10361 10360 10359 10358 10358 10358 10358 10358 10358 10358 10357 10356 10355 10353 10352 10351 10350 10348 10347 10346 10345 10343 10342 10341 10340 10339 10338 10338 10337
10366 10365 10365 10365 10365 10365 10363 10362 10362 10362 10360 10360 10361 10362 10362 10362 10363 10363 10362 10363 10364 10365 10366 10367 10367 10365 10365 10365 10363 10363 10365 10368 10368 10367 10365 10365 10364 10363 10363 10364 10364 10363 10362 10362 10362 10363 10363 10362 10362 10361 10361 10360 10360 10359 10358 10358 10357 10356 10355 10354 10353 10353 10353 10353 10353 10353 10353 10352 10350 10350 10348 10347 10346 10345 10343 10342 10341 10340 10338 10337 10336 10335 10334 10333 10333 10332
10357 10357 10357 10357 10357 10356 10355 10355 10354 10353 10353 10353 10353 10353 10353 10355 10355 10355 10355 10356 10357 10358 10358 10359 10359 10358 10359 10358 10357 10357 10358 10360 10360 10360 10360 10359 10357 10356 10357 10358 10358 10357 10356 10356 10357 10357 10357 10357 10356 10355 10355 10355 10355 10354 10353 10352 10352 10350 10350 10349 10348 10348 10348 10348 10348 10348 10347 10347 10345 10344 10343 10342 10342 10340 10339 10338 10336 10335 10333 10332 10331 10330 10330 10329 10328 10328
10349 10349 10348 10348 10348 10348 10347 10347 10346 10345 10345 10346 10346 10345 10345 10347 10348 10348 10348 10349 10350 10351 10351 10352 10352 10352 10352 10351 10350 10350 10350 10352 10353 10353 10354 10353 10351 10350 10350 10352 10352 10351 10350 10350 10351 10352 10352 10351 10350 10350 10350 10349 10349 10348 10347 10347 10346 10345 10345 10344 10343 10343 10343 10343 10343 10343 10342 10342 10340 10339 10338 10337 10337 10335 10334 10333 10332 10330 10328 10327 10327 10325 10325 10324 10324 10323
10340 10340 10340 10340 10340 10340 10339 10338 10338 10337 10338 10338 10338 10337 10338 10338 10340 10340 10341 10342 10343 10344 10344 10345 10345 10345 10343 10343 10343 10343 10343 10344 10346 10347 10347 10347 10345 10344 10344 10345 10345 10345 10343 10344 10345 10346 10345 10345 10345 10345 10345 10343 10343 10342 10342 10341 10340 10340 10339 10338 10338 10338 10338 10338 10338 10338 10337 10336 10335 10334 10333 10332 10332 10330 10330 10328 10327 10325 10324 10323 10322 10321 10320 10320 10319 10319
10331 10332 10332 10332 10332 10332 10330 10330 10330 10330 10330 10330 10330 10329 10330 10330 10332 10333 10334 10335 10336 10337 10337 10338 10338 10337 10336 10336 10336 10335 10335 10336 10338 10340 10340 10340 10339 10338 10338 10339 10339 10338 10337 10337 10338 10340 10340 10339 10339 10338 10338 10338 10337 10337 10336 10335 10335 10334 10334 10333 10333 10333 10333 10333 10333 10332 10332 10331 10330 10329 10328 10327 10327 10325 10324 10323 10322 10320 10319 10318 10317 10317 10316 10315 10315 10315
10321 10322 10322 10323 10323 10323 10323 10322 10322 10322 10322 10322 10322 10322 10322 10322 10323 10325 10326 10327 10328 10329 10330 10330 10330 10329 10329 10330 10329 10328 10327 10328 10330 10332 10333 10333 10333 10332 10331 10332 10333 10333 10332 10331 10332 10333 10334 10333 10333 10333 10333 10332 10332 10331 10330 10330 10329 10329 10328 10328 10328 10328 10328 10328 10328 10327 10327 10326 10325 10324 10323 10322 10321 10320 10319 10318 10317 10315 10314 10313 10313 10312 10312 10311 10310 10310
10310 10311 10312 10313 10314 10314 10314 10313 10313 10313 10313 10313 10313 10313 10314 10315 10316 10317 10318 10318 10320 10322 10323 10322 10322 10322 10322 10322 10322 10320 10320 10321 10322 10323 10325 10327 10327 10325 10324 10325 10326 10327 10326 10325 10326 10327 10328 10328 10327 10327 10327 10326 10325 10325 10324 10324 10323 10323 10323 10323 10323 10322 10323 10323 10323 10322 10322 10321 10320 10318 10318 10317 10316 10315 10314 10313 10312 10310 10310 10308 10308 10308 10307 10307 10306 10306
10298 10300 10302 10303 10304 10305 10305 10305 10305 10305 10305 10305 10305 10306 10306 10307 10308 10308 10308 10309 10312 10314 10315 10314 10314 10315 10315 10314 10313 10313 10313 10313 10314 10315 10317 10320 10320 10318 10317 10318 10320 10320 10320 10320 10320 10320 10322 10322 10321 10320 10320 10320 10320 10320 10319 10318 10318 10318 10318 10318 10317 10317 10317 10318 10318 10318 10317 10316 10315 10314 10313 10312 10311 10310 10308 10308 10307 10306 10305 10304 10303 10303 10303 10302 10302 10302
10288 10289 10290 10292 10293 10294 10295 10296 10296 10297 10297 10297 10297 10297 10298 10299 10300 10300 10300 10301 10304 10306 10305 10305 10306 10307 10307 10307 10306 10306 10306 10305 10305 10307 10310 10312 10312 10310 10310 10312 10313 10313 10314 10315 10314 10314 10315 10315 10315 10315 10314 10313 10313 10313 10313 10313 10313 10313 10312 10312 10312 10312 10313 10313 10313 10313 10312 10312 10310 10309 10308 10307 10306 10305 10304 10303 10302 10301 10300 10300 10299 10298 10298 10298 10298 10297
10277 10278 10280 10280 10282 10283 10285 10286 10287 10287 10288 10288 10288 10289 10290 10291 10292 10292 10292 10293 10296 10297 10297 10297 10298 10298 10299 10299 10299 10299 10298 10297 10297 10300 10303 10305 10304 10303 10304 10307 10307 10307 10308 10309 10309 10308 10307 10307 10307 10308 10308 10307 10307 10308 10308 10308 10307 10307 10307 10307 10307 10307 10308 10308 10308 10308 10307 10307 10305 10304 10303 10302 10301 10300 10299 10298 10297 10297 10296 10295 10295 10294 10294 10293 10293 10293
10265 10267 10268 10269 10270 10272 10273 10275 10277 10277 10278 10279 10280 10280 10281 10282 10283 10283 10284 10285 10287 10288 10288 10288 10289 10290 10291 10292 10292 10292 10289 10288 10289 10292 10295 10298 10297 10296 10298 10300 10300 10300 10301 10303 10304 10302 10300 10299 10300 10300 10302 10302 10302 10302 10302 10302 10302 10302 10302 10302 10302 10302 10303 10303 10303 10303 10302 10302 10301 10300 10298 10297 10297 10295 10295 10293 10293 10292 10292 10291 10290 10290 10290 10290 10289 10289
10254 10256 10257 10258 10259 10260 10262 10263 10265 10267 10268 10269 10270 10272 10272 10273 10274 10275 10276 10277 10277 10278 10279 10280 10280 10281 10282 10283 10285 10284 10282 10281 10281 10284 10288 10290 10290 10290 10292 10293 10293 10293 10294 10297 10298 10297 10295 10293 10292 10293 10294 10295 10295 10295 10296 10296 10296 10296 10296 10296 10296 10297 10297 10298 10298 10298 10297 10297 10296 10295 10294 10293 10292 10291 10290 10289 10288 10288 10287 10287 10286 10286 10285 10285 10285 10285
10242 10244 10245 10246 10247 10249 10250 10252 10253 10255 10257 10259 10260 10262 10263 10264 10265 10266 10267 10267 10268 10269 10270 10271 10272 10272 10273 10275 10276 10276 10275 10274 10274 10276 10280 10282 10283 10283 10284 10286 10287 10287 10288 10289 10290 10290 10290 10288 10287 10287 10287 10288 10288 10289 10290 10290 10290 10290 10290 10291 10291 10292 10292 10293 10293 10293 10292 10292 10291 10290 10289 10288 10287 10287 10285 10285 10284 10283 10283 10282 10282 10282 10282 10281 10281 10281
10231 10232 10233 10234 10235 10237 10238 10240 10242 10243 10245 10248 10250 10251 10253 10254 10255 10257 10257 10258 10258 10260 10261 10262 10263 10263 10265 10266 10267 10268 10267 10267 10267 10269 10272 10275 10276 10276 10277 10279 10280 10280 10282 10282 10283 10283 10283 10282 10282 10281 10281 10282 10282 10283 10284 10284 10284 10284 10285 10285 10286 10286 10287 10288 10288 10288 10287 10287 10286 10285 10284 10283 10283 10282 10281 10280 10279 10279 10278 10278 10278 10278 10277 10277 10277 10277
10220 10220 10222 10222 10223 10225 10227 10228 10230 10232 10233 10235 10238 10240 10242 10243 10245 10246 10247 10248 10249 10250 10251 10252 10253 10255 10257 10258 10259 10259 10258 10258 10259 10262 10265 10267 10268 10269 10271 10272 10273 10274 10275 10276 10276 10277 10277 10275 10275 10275 10275 10275 10276 10277 10278 10278 10278 10278 10279 10280 10281 10282 10282 10282 10283 10283 10282 10282 10281 10280 10279 10279 10278 10277 10277 10275 10275 10275 10274 10274 10273 10273 10273 10273 10273 10273
10208 10209 10210 10211 10212 10213 10215 10216 10218 10220 10222 10223 10225 10227 10230 10232 10234 10235 10237 10238 10239 10240 10241 10242 10243 10245 10248 10250 10251 10251 10251 10250 10252 10254 10257 10258 10260 10262 10265 10265 10266 10267 10269 10269 10269 10269 10270 10269 10268 10268 10270 10270 10270 10270 10271 10272 10273 10273 10273 10274 10275 10276 10277 10277 10278 10277 10277 10276 10275 10275 10275 10274 10273 10272 10272 10271 10270 10270 10270 10270 10270 10269 10269 10269 10269 10269
10197 10197 10198 10200 10201 10203 10203 10204 10205 10207 10209 10211 10213 10215 10217 10220 10222 10224 10226 10228 10230 10231 10232 10233 10234 10236 10238 10240 10242 10243 10243 10243 10245 10247 10248 10250 10252 10255 10257 10258 10259 10260 10262 10262 10262 10262 10263 10263 10263 10263 10263 10263 10264 10264 10265 10265 10267 10267 10268 10268 10270 10270 10271 10272 10272 10272 10272 10271 10270 10270 10269 10269 10268 10267 10267 10267 10266 10266 10265 10265 10265 10265 10265 10265 10265 10265
10185 10186 10187 10188 10190 10191 10192 10192 10193 10194 10197 10198 10200 10202 10205 10208 10211 10213 10216 10218 10220 10221 10222 10223 10225 10227 10229 10231 10233 10235 10235 10236 10237 10238 10240 10242 10245 10247 10250 10251 10252 10253 10255 10255 10255 10256 10257 10257 10257 10257 10257 10257 10258 10258 10259 10260 10261 10262 10262 10263 10264 10265 10265 10266 10267 10267 10267 10266 10265 10265 10264 10263 10263 10263 10262 10262 10262 10262 10262 10262 10262 10262 10262 10261 10261 10262
10172 10174 10175 10177 10178 10180 10180 10180 10180 10182 10183 10185 10188 10190 10193 10196 10199 10202 10205 10207 10210 10212 10213 10214 10215 10217 10220 10222 10223 10225 10227 10228 10229 10230 10232 10235 10237 10239 10242 10243 10245 10246 10247 10248 10249 10250 10250 10250 10250 10250 10250 10251 10252 10252 10253 10255 10255 10256 10256 10257 10258 10259 10260 10261 10262 10262 10261 10260 10260 10260 10259 10258 10258 10258 10258 10257 10257 10257 10257 10257 10257 10257 10258 10258 10257 10258
10161 10163 10164 10166 10167 10168 10169 10168 10168 10169 10171 10173 10175 10178 10182 10185 10188 10191 10193 10197 10199 10201 10203 10205 10206 10208 10210 10212 10214 10216 10218 10219 10221 10223 10225 10227 10229 10232 10234 10236 10238 10239 10240 10241 10242 10243 10243 10243 10243 10244 10244 10245 10246 10247 10247 10248 10249 10250 10252 10252 10253 10253 10254 10256 10257 10256 10256 10255 10255 10254 10253 10253 10253 10253 10253 10253 10253 10253 10253 10253 10253 10253 10253 10253 10253 10254
10150 10151 10153 10154 10155 10157 10157 10157 10157 10158 10159 10161 10164 10167 10170 10173 10176 10179 10182 10185 10188 10190 10193 10195 10197 10198 10200 10202 10204 10207 10209 10211 10213 10215 10217 10219 10221 10223 10227 10228 10230 10232 10233 10234 10235 10235 10237 10237 10237 10237 10238 10239 10240 10241 10242 10242 10243 10245 10246 10247 10247 10247 10249 10250 10251 10250 10250 10250 10250 10249 10248 10248 10248 10248 10248 10248 10248 10248 10249 10249 10249 10249 10250 10250 10250 10250
10138 10140 10142 10143 10145 10145 10146 10146 10147 10147 10148 10150 10153 10155 10158 10161 10164 10167 10170 10173 10176 10179 10182 10184 10187 10188 10190 10192 10195 10197 10200 10203 10205 10207 10208 10211 10213 10216 10218 10221 10223 10225 10227 10227 10228 10228 10229 10230 10231 10232 10232 10233 10235 10235 10236 10236 10237 10239 10240 10241 10242 10243 10244 10245 10245 10245 10245 10245 10244 10244 10244 10243 10243 10243 10244 10244 10244 10245 10245 10245 10245 10245 10245 10246 10246 10247
10127 10128 10130 10132 10134 10135 10135 10136 10137 10137 10138 10140 10142 10143 10147 10150 10153 10157 10159 10162 10165 10168 10171 10173 10176 10178 10180 10182 10185 10188 10191 10194 10197 10198 10201 10203 10205 10208 10211 10213 10215 10217 10219 10220 10221 10221 10222 10223 10225 10225 10225 10227 10229 10230 10230 10230 10232 10233 10234 10235 10237 10238 10238 10238 10239 10240 10240 10239 10239 10239 10238 10238 10238 10239 10240 10240 10240 10240 10241 10241 10242 10242 10242 10242 10242 10243
10117 10118 10120 10122 10123 10125 10126 10127 10127 10127 10128 10130 10131 10133 10136 10139 10143 10146 10148 10151 10154 10157 10160 10163 10166 10168 10171 10173 10176 10179 10182 10185 10188 10190 10192 10195 10197 10200 10203 10206 10208 10210 10212 10213 10213 10214 10215 10217 10217 10218 10220 10222 10223 10223 10223 10224 10225 10227 10228 10230 10232 10233 10233 10233 10233 10234 10234 10234 10233 10233 10234 10234 10234 10235 10235 10235 10236 10237 10237 10237 10237 10238 10238 10238 10239 10240
10107 10108 10110 10111 10113 10115 10117 10117 10117 10118 10119 10120 10122 10123 10126 10129 10132 10135 10138 10141 10144 10147 10150 10153 10157 10159 10162 10164 10167 10170 10173 10176 10179 10181 10183 10186 10189 10192 10195 10198 10200 10202 10203 10205 10206 10207 10208 10210 10210 10212 10214 10217 10217 10217 10217 10218 10220 10222 10223 10225 10226 10227 10227 10228 10228 10229 10228 10228 10228 10228 10229 10229 10230 10230 10230 10231 10232 10232 10233 10233 10233 10233 10234 10235 10235 10236
10097 10098 10100 10102 10103 10105 10107 10107 10108 10110 10111 10112 10112 10114 10117 10120 10123 10125 10128 10132 10134 10137 10140 10143 10147 10150 10152 10155 10158 10162 10165 10167 10170 10172 10175 10178 10180 10184 10187 10190 10193 10195 10196 10197 10199 10200 10202 10203 10205 10206 10208 10210 10210 10210 10211 10213 10214 10216 10217 10219 10220 10222 10222 10223 10223 10223 10223 10223 10223 10223 10224 10225 10225 10226 10226 10227 10227 10228 10229 10229 10230 10230 10230 10231 10232 10232
10088 10089 10090 10092 10093 10095 10097 10098 10100 10102 10102 10103 10104 10105 10108 10110 10113 10117 10119 10122 10125 10128 10132 10135 10138 10141 10143 10147 10150 10153 10157 10158 10161 10164 10167 10170 10172 10176 10179 10182 10185 10187 10189 10190 10192 10193 10195 10197 10198 10200 10202 10203 10203 10204 10205 10207 10209 10211 10212 10213 10215 10216 10216 10217 10217 10218 10218 10218 10218 10219 10220 10220 10221 10221 10222 10223 10223 10224 10225 10225 10226 10227 10227 10227 10228 10229
10079 10080 10082 10083 10085 10086 10088 10090 10091 10093 10093 10095 10096 10098 10100 10102 10105 10108 10111 10114 10117 10120 10123 10127 10130 10133 10135 10139 10142 10145 10148 10150 10153 10156 10158 10162 10165 10168 10171 10175 10177 10180 10182 10183 10185 10187 10188 10190 10192 10193 10195 10196 10197 10198 10199 10201 10203 10205 10207 10208 10209 10210 10210 10211 10212 10212 10213 10213 10214 10215 10215 10216 10217 10217 10218 10218 10220 10220 10221 10222 10222 10223 10223 10224 10225 10225
10070 10072 10073 10075 10077 10078 10080 10081 10083 10084 10085 10087 10088 10090 10092 10094 10097 10100 10103 10107 10110 10113 10115 10118 10122 10125 10128 10131 10134 10137 10140 10142 10145 10148 10151 10153 10157 10160 10163 10167 10170 10172 10174 10176 10178 10180 10182 10183 10185 10186 10187 10189 10191 10192 10193 10195 10198 10200 10201 10202 10203 10204 10205 10205 10206 10207 10208 10208 10209 10210 10211 10212 10212 10213 10214 10215 10215 10216 10217 10217 10218 10219 10220 10221 10222 10222
10063 10064 10066 10068 10069 10070 10072 10074 10075 10077 10077 10079 10080 10082 10084 10087 10090 10093 10096 10099 10102 10105 10108 10111 10114 10118 10121 10123 10126 10129 10132 10134 10137 10140 10143 10146 10149 10153 10156 10159 10162 10165 10167 10169 10171 10173 10175 10177 10178 10179 10180 10183 10185 10187 10188 10190 10192 10194 10195 10196 10197 10198 10199 10200 10201 10202 10203 10204 10205 10206 10207 10207 10208 10209 10210 10210 10211 10212 10213 10213 10215 10215 10217 10217 10218 10219
10055 10057 10058 10060 10062 10063 10065 10067 10068 10069 10070 10071 10073 10075 10077 10080 10083 10087 10090 10093 10095 10098 10101 10104 10108 10111 10113 10116 10118 10121 10124 10127 10130 10133 10135 10138 10142 10146 10149 10152 10155 10158 10160 10162 10164 10166 10168 10170 10171 10172 10174 10177 10179 10182 10184 10185 10187 10188 10189 10190 10191 10193 10194 10195 10196 10197 10198 10200 10200 10202 10203 10203 10204 10205 10206 10207 10207 10208 10209 10210 10211 10212 10213 10214 10215 10216